Location: Dreilärchen
(47.9312°N, 8.6113°E)
Time: 21:06:17
(UTC+00:00)

SL-16 R/B - Pass Details

Date: 26 May 2022
Orbit: 985 x 1006 km, 99.6° (Epoch: 04 July)

Event Time Altitude Azimuth Distance (km) Brightness Sun altitude
Exits shadow 01:14:41 14° 165° (SSE) 2,463 4.2 -16.5°
Maximum altitude 01:20:08 85° 254° (WSW) 1,009 2.5 -16.1°
Drops below altitude 10° 01:26:25 10° 343° (NNW) 2,785 5.5 -15.6°
Sets 01:28:55 0° 344° (NNW) 3,741 6.2 -15.4°
